Powrót do katalogu

STARLINK-34426

AktywnyŁącznośćVLEO
NORAD 64345·PAYLOAD·🇺🇸 United States

Wystrzelony Jun 13, 2025 z Vandenberg Space Force Base

Loading…

Następne Przeloty (najbliższe 24 godziny)

TLE

ŚwieżeSource: CelesTrak SupGP

Epoka: Sep 15, 2026, 02:43 UTC

1 64345C 25126B   26258.11368056 -.00020177  00000+0 -68378-3 0  2582
2 64345  70.0003 275.2774 0003433 266.2108 148.8136 15.30437665    18

Śledź STARLINK-34426 w czasie rzeczywistym z AllMySat

Download on the App Store